Date String (YYYY-MM-DD hh:mm:ss) UTC,Instrument flags,Ambient pressure (hPa),Sample flow (lpm),Bypass flow (lpm),Sample temperature (°C),Ambient temperature (°C),ASC tube jacket temperature (°C),LED temperature (°C),Box temperature (°C),Sample RH (%),Span deviation,Mass concentration (μg/m³),Mass concentration (μg/m³),Mass concentration (μg/m³)
DateTimeUTC,F1_M11,P_M11,Q1_M11,Q2_M11,T1_M11,T2_M11,T3_M11,T4_M11,T5_M11,U1_M11,ZSPAN_M11,X0_M11,X2_M11,X1_M11
2021-11-29 02:00:00,,0829.7,5.00,0.00,30.1,29.2,00.0,39.0,31.7,09.8,0000.0,0001.53,0000.60,0000.35
2021-11-29 02:01:00,,0829.7,5.01,0.00,30.0,29.2,00.0,39.0,31.7,09.8,0000.0,0001.69,0000.62,0000.35
2021-11-29 02:02:00,,0829.7,4.99,0.00,30.0,29.2,00.0,39.0,31.7,09.8,0000.0,0001.76,0000.62,0000.35
2021-11-29 02:03:00,,0829.8,5.01,0.00,30.0,29.2,00.0,39.0,31.7,09.8,0000.0,0001.83,0000.66,0000.36
2021-11-29 02:04:00,,0829.8,5.00,0.00,30.0,29.2,00.0,39.0,31.7,09.8,0000.0,0001.75,0000.68,0000.36
2021-11-29 02:05:00,,0829.8,4.99,0.00,30.0,29.2,00.0,39.0,31.7,09.8,0000.0,0001.75,0000.70,0000.37
2021-11-29 02:06:00,,0829.8,4.99,0.00,30.0,29.2,00.0,39.0,31.7,09.8,0000.0,0001.75,0000.70,0000.37
2021-11-29 02:07:00,,0829.7,5.00,0.00,30.0,29.2,00.0,39.0,31.8,09.8,0000.0,0001.81,0000.72,0000.37
2021-11-29 02:08:00,,0829.7,5.01,0.00,30.0,29.2,00.0,39.0,31.7,09.8,0000.0,0001.81,0000.74,0000.37
2021-11-29 02:09:00,,0829.7,5.01,0.00,30.0,29.2,00.0,39.0,31.7,09.8,0000.0,0001.78,0000.73,0000.37
2021-11-29 02:10:00,,0829.7,4.99,0.00,30.0,29.2,00.0,39.0,31.7,09.8,0000.0,0001.70,0000.73,0000.38
2021-11-29 02:11:00,,0829.6,5.01,0.00,30.0,29.2,00.0,39.0,31.7,09.8,0000.0,0001.77,0000.71,0000.37
2021-11-29 02:12:00,,0829.7,4.99,0.00,30.0,29.2,00.0,39.0,31.7,09.8,0000.0,0001.55,0000.68,0000.37
2021-11-29 02:13:00,,0829.7,5.00,0.00,30.0,29.2,00.0,39.0,31.8,09.8,0000.0,0001.60,0000.73,0000.38
2021-11-29 02:14:00,,0829.8,4.99,0.00,30.0,29.2,00.0,39.0,31.7,09.8,0000.0,0001.61,0000.72,0000.37
2021-11-29 02:15:00,,0829.6,4.99,0.00,30.0,29.2,00.0,39.0,31.7,09.8,0000.0,0001.58,0000.70,0000.37
2021-11-29 02:16:00,,0829.6,5.00,0.00,30.0,29.2,00.0,39.0,31.7,09.8,0000.0,0001.54,0000.67,0000.37
2021-11-29 02:17:00,,0829.6,5.00,0.00,30.0,29.2,00.0,39.0,31.7,09.8,0000.0,0001.52,0000.66,0000.36
2021-11-29 02:18:00,,0829.5,5.01,0.00,30.0,29.2,00.0,39.0,31.7,09.8,0000.0,0001.47,0000.65,0000.36
2021-11-29 02:19:00,,0829.5,5.00,0.00,30.0,29.2,00.0,39.0,31.7,09.8,0000.0,0001.44,0000.65,0000.36
2021-11-29 02:20:00,,0829.6,4.99,0.00,30.0,29.2,00.0,39.0,31.7,09.8,0000.0,0001.48,0000.67,0000.36
2021-11-29 02:21:00,,0829.6,4.99,0.00,30.0,29.2,00.0,39.0,31.8,09.8,0000.0,0001.37,0000.67,0000.36
2021-11-29 02:22:00,,0829.6,5.00,0.00,30.0,29.2,00.0,39.0,31.7,09.8,0000.0,0001.32,0000.66,0000.36
2021-11-29 02:23:00,,0829.6,5.00,0.00,30.0,29.2,00.0,39.0,31.7,09.8,0000.0,0001.27,0000.65,0000.36
2021-11-29 02:24:00,,0829.6,5.01,0.00,30.0,29.2,00.0,39.0,31.7,09.8,0000.0,0001.25,0000.63,0000.35
2021-11-29 02:25:00,,0829.6,5.00,0.00,30.0,29.2,00.0,39.0,31.7,09.8,0000.0,0001.25,0000.61,0000.36
2021-11-29 02:26:00,,0829.7,5.00,0.00,30.0,29.1,00.0,39.0,31.7,09.8,0000.0,0001.27,0000.61,0000.36
2021-11-29 02:27:00,,0829.6,5.00,0.00,30.0,29.1,00.0,39.0,31.7,09.8,0000.0,0001.29,0000.62,0000.36
2021-11-29 02:28:00,,0829.6,5.00,0.00,30.0,29.1,00.0,39.0,31.7,09.8,0000.0,0001.49,0000.65,0000.37
2021-11-29 02:29:00,,0829.8,4.99,0.00,30.0,29.1,00.0,39.0,31.7,09.7,0000.0,0001.54,0000.65,0000.37
2021-11-29 02:30:00,,0829.6,5.01,0.00,30.0,29.1,00.0,39.0,31.7,09.7,0000.0,0001.70,0000.65,0000.37
2021-11-29 02:31:00,,0829.6,4.99,0.00,30.0,29.1,00.0,39.0,31.6,09.7,0000.0,0001.67,0000.63,0000.37
2021-11-29 02:32:00,,0829.6,5.00,0.00,29.9,29.1,00.0,39.0,31.6,09.7,0000.0,0001.75,0000.64,0000.36
2021-11-29 02:33:00,,0829.5,5.02,0.00,29.9,29.1,00.0,39.0,31.6,09.7,0000.0,0001.72,0000.65,0000.36
2021-11-29 02:34:00,,0829.5,4.99,0.00,29.9,29.1,00.0,39.0,31.5,09.6,0000.0,0001.72,0000.65,0000.37
2021-11-29 02:35:00,,0829.6,4.99,0.00,29.9,29.1,00.0,39.0,31.5,09.7,0000.0,0001.68,0000.65,0000.37
2021-11-29 02:36:00,,0829.6,5.00,0.00,29.9,29.1,00.0,39.0,31.5,09.7,0000.0,0001.59,0000.65,0000.37
2021-11-29 02:37:00,,0829.6,5.01,0.00,29.9,29.0,00.0,38.9,31.5,09.8,0000.0,0001.61,0000.66,0000.38
2021-11-29 02:38:00,,0829.6,5.00,0.00,29.9,29.0,00.0,38.9,31.5,09.8,0000.0,0001.82,0000.66,0000.38
2021-11-29 02:39:00,,0829.8,5.00,0.00,29.9,29.0,00.0,38.9,31.5,09.8,0000.0,0003.18,0000.65,0000.39
2021-11-29 02:40:00,,0829.7,5.00,0.00,29.9,29.0,00.0,38.9,31.5,09.8,0000.0,0003.16,0000.67,0000.41
2021-11-29 02:41:00,,0829.7,4.99,0.00,29.9,29.0,00.0,38.9,31.6,09.8,0000.0,0003.23,0000.71,0000.44
2021-11-29 02:42:00,,0829.7,5.01,0.00,29.9,29.0,00.0,38.9,31.6,09.8,0000.0,0003.20,0000.72,0000.44
2021-11-29 02:43:00,,0829.7,5.00,0.00,29.9,29.0,00.0,38.9,31.6,09.8,0000.0,0003.12,0000.71,0000.46
2021-11-29 02:44:00,,0829.8,5.00,0.00,29.9,29.1,00.0,38.9,31.6,09.8,0000.0,0003.22,0000.72,0000.47
2021-11-29 02:45:00,,0829.7,4.99,0.00,29.9,29.1,00.0,38.9,31.6,09.8,0000.0,0003.56,0000.75,0000.49
2021-11-29 02:46:00,,0829.8,5.00,0.00,29.9,29.1,00.0,38.9,31.6,09.8,0000.0,0004.28,0000.75,0000.49
2021-11-29 02:47:00,,0829.8,5.02,0.00,29.9,29.1,00.0,38.9,31.6,09.9,0000.0,0004.32,0000.77,0000.50
2021-11-29 02:48:00,,0829.8,4.99,0.00,29.9,29.1,00.0,38.9,31.6,09.9,0000.0,0004.32,0000.78,0000.51
2021-11-29 02:49:00,,0829.7,5.00,0.00,29.9,29.1,00.0,38.9,31.6,09.7,0000.0,0004.46,0000.80,0000.51
2021-11-29 02:50:00,,0829.8,5.00,0.00,29.9,29.1,00.0,38.9,31.5,09.7,0000.0,0003.46,0000.82,0000.50
2021-11-29 02:51:00,,0829.6,5.00,0.00,29.9,29.1,00.0,38.9,31.5,09.7,0000.0,0002.85,0000.86,0000.50
2021-11-29 02:52:00,,0829.6,5.00,0.00,29.9,29.1,00.0,38.9,31.5,09.8,0000.0,0002.75,0000.84,0000.48
2021-11-29 02:53:00,,0829.7,5.00,0.00,29.9,29.0,00.0,38.9,31.5,09.8,0000.0,0002.64,0000.81,0000.47
2021-11-29 02:54:00,,0829.9,5.00,0.00,29.8,29.0,00.0,38.9,31.5,09.7,0000.0,0002.77,0000.85,0000.46
2021-11-29 02:55:00,,0829.6,4.99,0.00,29.8,29.0,00.0,38.9,31.5,09.7,0000.0,0002.78,0000.86,0000.45
2021-11-29 02:56:00,,0829.7,5.01,0.00,29.8,29.0,00.0,38.9,31.5,09.7,0000.0,0002.72,0000.86,0000.44
2021-11-29 02:57:00,,0829.7,4.99,0.00,29.8,29.0,00.0,38.9,31.5,09.7,0000.0,0002.00,0000.89,0000.43
2021-11-29 02:58:00,,0829.7,5.02,0.00,29.8,29.0,00.0,38.9,31.5,09.7,0000.0,0001.89,0000.88,0000.42
2021-11-29 02:59:00,,0829.6,4.99,0.00,29.9,29.0,00.0,38.9,31.6,09.7,0000.0,0001.84,0000.86,0000.43
